EZY7159 LIMC-LIBD

Flight info

Callsign EZY7159
Flight time 1h 11m
Altitude 37000
Route VAKON DCT IBUPU DCT NISIL DCT LUMAV DCT RUPAX DCT ALJUB DCT EKKEF DCT PERAV
Aircraft A320/M-SDE3FGHIRWY/LB1

Departure

Time 2026-04-26 22:19
Airport Milan Malpensa International Airport (LIMC)

Arrival

Time 2026-04-26 23:31
Airport Bari Karol Wojtyła International Airport (LIBD)
Time Latitude Longitude Altitude Speed Heading
2026-04-26 21:53 45.64366 8.72374 716 ft 0 kts 79°
2026-04-26 22:09 45.64363 8.72353 717 ft 4 kts 80°
2026-04-26 22:09 45.64359 8.72314 717 ft 4 kts 85°
2026-04-26 22:09 45.64358 8.72276 715 ft 4 kts 95°
2026-04-26 22:10 45.64364 8.72241 715 ft 4 kts 129°
2026-04-26 22:10 45.64376 8.72228 719 ft 1 kts 169°
2026-04-26 22:10 45.64379 8.72227 719 ft 0 kts 169°
2026-04-26 22:12 45.64377 8.72228 719 ft 3 kts 169°
2026-04-26 22:13 45.64301 8.72249 720 ft 14 kts 168°
2026-04-26 22:13 45.64165 8.72287 716 ft 24 kts 168°
2026-04-26 22:13 45.64005 8.72332 719 ft 20 kts 169°
2026-04-26 22:13 45.63942 8.72429 715 ft 16 kts 82°
2026-04-26 22:14 45.63912 8.72569 716 ft 17 kts 162°
2026-04-26 22:14 45.63774 8.72608 717 ft 24 kts 169°
2026-04-26 22:14 45.63598 8.72657 718 ft 27 kts 169°
2026-04-26 22:14 45.63406 8.72711 717 ft 29 kts 169°
2026-04-26 22:15 45.63211 8.72765 718 ft 29 kts 169°
2026-04-26 22:15 45.63017 8.72819 717 ft 28 kts 169°
2026-04-26 22:15 45.62824 8.72873 716 ft 29 kts 169°
2026-04-26 22:15 45.62627 8.72928 717 ft 29 kts 169°
2026-04-26 22:16 45.62434 8.72981 716 ft 28 kts 169°
2026-04-26 22:16 45.62241 8.73035 716 ft 28 kts 169°
2026-04-26 22:16 45.62049 8.73089 716 ft 29 kts 169°
2026-04-26 22:16 45.61875 8.73136 718 ft 25 kts 169°
2026-04-26 22:17 45.61759 8.73192 716 ft 16 kts 134°
2026-04-26 22:17 45.61688 8.73327 718 ft 17 kts 124°
2026-04-26 22:17 45.61616 8.73477 718 ft 18 kts 123°
2026-04-26 22:17 45.61592 8.73629 718 ft 17 kts 87°
2026-04-26 22:18 45.61672 8.73723 716 ft 13 kts 353°
2026-04-26 22:18 45.61686 8.73720 715 ft 4 kts 351°
2026-04-26 22:18 45.61987 8.73637 716 ft 84 kts 349°
2026-04-26 22:18 45.62782 8.73418 717 ft 145 kts 349°
2026-04-26 22:19 45.63874 8.73125 1064 ft 160 kts 349°
2026-04-26 22:19 45.64989 8.73084 1699 ft 163 kts 14°
2026-04-26 22:19 45.65981 8.73942 2109 ft 180 kts 54°
2026-04-26 22:19 45.66486 8.75644 2518 ft 193 kts 70°
2026-04-26 22:20 45.67259 8.77315 2850 ft 214 kts 44°
2026-04-26 22:20 45.67990 8.78281 3295 ft 217 kts 40°
2026-04-26 22:20 45.69563 8.80066 4383 ft 215 kts 38°
2026-04-26 22:20 45.70754 8.81372 5147 ft 216 kts 38°
2026-04-26 22:21 45.71919 8.82747 5872 ft 218 kts 49°
2026-04-26 22:21 45.72584 8.84677 6536 ft 221 kts 83°
2026-04-26 22:21 45.72348 8.86902 6930 ft 239 kts 119°
2026-04-26 22:21 45.71379 8.88891 7538 ft 247 kts 126°
2026-04-26 22:22 45.70352 8.90881 8299 ft 250 kts 126°
2026-04-26 22:22 45.69313 8.92899 9099 ft 254 kts 126°
2026-04-26 22:22 45.68264 8.94949 9905 ft 257 kts 126°
2026-04-26 22:22 45.67206 8.97025 10650 ft 260 kts 126°
2026-04-26 22:23 45.66135 8.99131 11375 ft 264 kts 126°
2026-04-26 22:23 45.65069 9.01284 12097 ft 267 kts 120°
2026-04-26 22:23 45.64307 9.03729 12650 ft 279 kts 105°
2026-04-26 22:23 45.63806 9.06522 12886 ft 302 kts 103°
2026-04-26 22:24 45.63278 9.09545 13091 ft 325 kts 103°
2026-04-26 22:24 45.62711 9.12796 13259 ft 348 kts 103°
2026-04-26 22:24 45.62109 9.16228 13662 ft 362 kts 103°
2026-04-26 22:24 45.61490 9.19741 14270 ft 368 kts 103°
2026-04-26 22:25 45.60858 9.23301 14888 ft 372 kts 104°
2026-04-26 22:25 45.60215 9.26902 15509 ft 376 kts 104°
2026-04-26 22:25 45.59562 9.30536 16128 ft 380 kts 104°
2026-04-26 22:25 45.58902 9.34213 16746 ft 384 kts 104°
2026-04-26 22:26 45.58235 9.37922 17484 ft 387 kts 104°
2026-04-26 22:26 45.57558 9.41669 18100 ft 392 kts 104°
2026-04-26 22:26 45.56873 9.45457 18663 ft 396 kts 104°
2026-04-26 22:26 45.56180 9.49280 19188 ft 400 kts 104°
2026-04-26 22:27 45.55488 9.53145 19724 ft 404 kts 103°
2026-04-26 22:27 45.54829 9.57053 20269 ft 407 kts 102°
2026-04-26 22:27 45.54189 9.61007 20811 ft 411 kts 102°
2026-04-26 22:27 45.53550 9.65051 21352 ft 414 kts 102°
2026-04-26 22:28 45.52914 9.69071 21868 ft 418 kts 102°
2026-04-26 22:28 45.52264 9.73123 22312 ft 421 kts 102°
2026-04-26 22:28 45.51596 9.77203 22817 ft 424 kts 103°
2026-04-26 22:28 45.50913 9.81322 23283 ft 428 kts 103°
2026-04-26 22:29 45.50223 9.85472 23746 ft 432 kts 103°
2026-04-26 22:29 45.49528 9.89653 24141 ft 435 kts 103°
2026-04-26 22:29 45.48828 9.93864 24519 ft 438 kts 103°
2026-04-26 22:29 45.48072 9.98071 24912 ft 440 kts 108°
2026-04-26 22:30 45.46923 10.02128 25299 ft 443 kts 117°
2026-04-26 22:30 45.45417 10.05957 25681 ft 445 kts 120°
2026-04-26 22:30 45.43864 10.09788 26067 ft 447 kts 120°
2026-04-26 22:30 45.42305 10.13631 26448 ft 450 kts 121°
2026-04-26 22:31 45.40734 10.17501 26788 ft 453 kts 121°
2026-04-26 22:31 45.39152 10.21397 27143 ft 455 kts 121°
2026-04-26 22:31 45.37565 10.25309 27490 ft 458 kts 121°
2026-04-26 22:31 45.35967 10.29244 27841 ft 460 kts 121°
2026-04-26 22:32 45.34360 10.33198 28206 ft 463 kts 121°
2026-04-26 22:32 45.32747 10.37160 28534 ft 465 kts 121°
2026-04-26 22:32 45.31122 10.41147 28854 ft 467 kts 121°
2026-04-26 22:32 45.29487 10.45143 29152 ft 469 kts 121°
2026-04-26 22:33 45.27842 10.49157 29472 ft 471 kts 122°
2026-04-26 22:33 45.24526 10.57203 30083 ft 474 kts 122°
2026-04-26 22:33 45.22857 10.61246 30328 ft 476 kts 122°
2026-04-26 22:34 45.21185 10.65304 30557 ft 477 kts 122°
2026-04-26 22:34 45.19511 10.69369 30863 ft 477 kts 122°
2026-04-26 22:34 45.17837 10.73430 31164 ft 477 kts 122°
2026-04-26 22:34 45.16164 10.77491 31448 ft 477 kts 122°
2026-04-26 22:35 45.14488 10.81547 31752 ft 477 kts 122°
2026-04-26 22:35 45.12808 10.85606 32035 ft 478 kts 122°
2026-04-26 22:35 45.11124 10.89667 32305 ft 478 kts 122°
2026-04-26 22:35 45.09440 10.93726 32591 ft 479 kts 122°
2026-04-26 22:36 45.07747 10.97788 32877 ft 479 kts 122°
2026-04-26 22:36 45.06053 11.01841 33164 ft 479 kts 122°
2026-04-26 22:36 45.04355 11.05907 33452 ft 479 kts 122°
2026-04-26 22:36 45.02659 11.09965 33746 ft 479 kts 122°
2026-04-26 22:37 45.00966 11.14012 34050 ft 479 kts 122°
2026-04-26 22:37 44.99269 11.18061 34353 ft 478 kts 122°
2026-04-26 22:37 44.98124 11.20790 34553 ft 478 kts 122°
2026-04-26 22:37 44.96445 11.24843 34827 ft 478 kts 121°
2026-04-26 22:38 44.94790 11.28901 35105 ft 477 kts 121°
2026-04-26 22:38 44.93149 11.32964 35386 ft 476 kts 121°
2026-04-26 22:38 44.91515 11.37020 35658 ft 475 kts 121°
2026-04-26 22:38 44.89880 11.41062 35920 ft 474 kts 121°
2026-04-26 22:39 44.88240 11.45096 36183 ft 473 kts 121°
2026-04-26 22:39 44.86601 11.49110 36425 ft 473 kts 121°
2026-04-26 22:39 44.84953 11.53120 36658 ft 472 kts 121°
2026-04-26 22:39 44.83308 11.57113 36880 ft 472 kts 121°
2026-04-26 22:40 44.81613 11.61066 37093 ft 470 kts 126°
2026-04-26 22:40 44.77476 11.68171 37164 ft 469 kts 132°
2026-04-26 22:41 44.73219 11.75110 37157 ft 468 kts 132°
2026-04-26 22:41 44.68967 11.82043 37166 ft 468 kts 132°
2026-04-26 22:42 44.64719 11.88964 37149 ft 467 kts 132°
2026-04-26 22:42 44.60471 11.95872 37152 ft 468 kts 132°
2026-04-26 22:43 44.56182 12.02815 37150 ft 468 kts 132°
2026-04-26 22:43 44.51929 12.09710 37148 ft 467 kts 132°
2026-04-26 22:44 44.47674 12.16589 37154 ft 467 kts 133°
2026-04-26 22:44 44.43412 12.23435 37143 ft 466 kts 133°
2026-04-26 22:45 44.39146 12.30265 37147 ft 466 kts 133°
2026-04-26 22:45 44.34890 12.37094 37139 ft 466 kts 133°
2026-04-26 22:46 44.30637 12.43907 37144 ft 465 kts 133°
2026-04-26 22:46 44.26367 12.50706 37143 ft 465 kts 133°
2026-04-26 22:47 44.22095 12.57488 37140 ft 466 kts 133°
2026-04-26 22:47 44.17816 12.64267 37118 ft 465 kts 133°
2026-04-26 22:48 44.13538 12.71037 37119 ft 466 kts 133°
2026-04-26 22:48 44.09260 12.77798 37126 ft 466 kts 133°
2026-04-26 22:49 44.04966 12.84551 37126 ft 466 kts 133°
2026-04-26 22:49 44.00670 12.91299 37129 ft 466 kts 133°
2026-04-26 22:50 43.96365 12.98044 37133 ft 467 kts 133°
2026-04-26 22:50 43.92052 13.04788 37143 ft 467 kts 133°
2026-04-26 22:51 43.87733 13.11519 37148 ft 467 kts 133°
2026-04-26 22:51 43.83386 13.18296 37146 ft 468 kts 133°
2026-04-26 22:52 43.79057 13.25022 37146 ft 468 kts 133°
2026-04-26 22:52 43.74721 13.31735 37151 ft 468 kts 133°
2026-04-26 22:53 43.70380 13.38447 37146 ft 468 kts 133°
2026-04-26 22:53 43.66029 13.45139 37150 ft 468 kts 133°
2026-04-26 22:54 43.61675 13.51813 37138 ft 468 kts 133°
2026-04-26 22:54 43.57328 13.58495 37147 ft 467 kts 133°
2026-04-26 22:55 43.52987 13.65159 37152 ft 467 kts 133°
2026-04-26 22:55 43.48635 13.71805 37148 ft 467 kts 133°
2026-04-26 22:56 43.44277 13.78436 37148 ft 467 kts 133°
2026-04-26 22:56 43.39913 13.85062 37152 ft 467 kts 133°
2026-04-26 22:57 43.35552 13.91686 37148 ft 467 kts 134°
2026-04-26 22:57 43.31188 13.98290 37147 ft 467 kts 134°
2026-04-26 22:58 43.26818 14.04875 37152 ft 467 kts 134°
2026-04-26 22:58 43.22445 14.11456 37146 ft 467 kts 134°
2026-04-26 22:59 43.18076 14.18037 37152 ft 467 kts 134°
2026-04-26 22:59 43.13691 14.24604 37151 ft 467 kts 134°
2026-04-26 23:00 43.09278 14.31191 37143 ft 466 kts 134°
2026-04-26 23:00 43.04902 14.37739 37144 ft 466 kts 134°
2026-04-26 23:01 43.00523 14.44277 37153 ft 467 kts 134°
2026-04-26 23:01 42.96126 14.50796 37151 ft 466 kts 134°
2026-04-26 23:02 42.91726 14.57309 37155 ft 466 kts 134°
2026-04-26 23:02 42.87329 14.63804 37137 ft 466 kts 134°
2026-04-26 23:03 42.82935 14.70298 37141 ft 466 kts 134°
2026-04-26 23:03 42.78537 14.76782 37145 ft 466 kts 134°
2026-04-26 23:04 42.74132 14.83250 37141 ft 466 kts 134°
2026-04-26 23:04 42.69725 14.89706 37134 ft 466 kts 134°
2026-04-26 23:05 42.65310 14.96155 37141 ft 465 kts 135°
2026-04-26 23:05 42.60902 15.02594 37128 ft 465 kts 135°
2026-04-26 23:06 42.56489 15.09029 37135 ft 466 kts 135°
2026-04-26 23:06 42.52068 15.15444 37135 ft 466 kts 135°
2026-04-26 23:07 42.47645 15.21856 37124 ft 466 kts 135°
2026-04-26 23:07 42.43211 15.28278 36690 ft 466 kts 135°
2026-04-26 23:07 42.40992 15.31480 36426 ft 466 kts 135°
2026-04-26 23:08 42.38769 15.34684 36166 ft 467 kts 135°
2026-04-26 23:08 42.36547 15.37882 35911 ft 467 kts 135°
2026-04-26 23:08 42.34319 15.41080 35439 ft 468 kts 135°
2026-04-26 23:08 42.32064 15.44310 34465 ft 476 kts 135°
2026-04-26 23:09 42.29910 15.47729 33454 ft 481 kts 126°
2026-04-26 23:09 42.28113 15.51556 32517 ft 483 kts 121°
2026-04-26 23:09 42.26354 15.55511 31467 ft 487 kts 121°
2026-04-26 23:09 42.25193 15.58096 31074 ft 483 kts 121°
2026-04-26 23:10 42.22872 15.63230 30251 ft 477 kts 121°
2026-04-26 23:10 42.21724 15.65758 29783 ft 475 kts 121°
2026-04-26 23:10 42.20008 15.69532 29151 ft 470 kts 121°
2026-04-26 23:10 42.18308 15.73273 28535 ft 465 kts 121°
2026-04-26 23:11 42.16627 15.76970 27927 ft 460 kts 121°
2026-04-26 23:11 42.14961 15.80637 27321 ft 456 kts 121°
2026-04-26 23:11 42.13312 15.84263 26727 ft 452 kts 121°
2026-04-26 23:11 42.11680 15.87851 26138 ft 448 kts 121°
2026-04-26 23:12 42.10053 15.91415 25556 ft 445 kts 121°
2026-04-26 23:12 42.08439 15.94946 24954 ft 441 kts 121°
2026-04-26 23:12 42.06836 15.98458 24404 ft 438 kts 121°
2026-04-26 23:12 42.05249 16.01936 23870 ft 435 kts 121°
2026-04-26 23:13 42.03669 16.05393 23282 ft 432 kts 121°
2026-04-26 23:13 42.02102 16.08810 22778 ft 426 kts 121°
2026-04-26 23:13 42.00554 16.12175 22293 ft 421 kts 121°
2026-04-26 23:13 41.99022 16.15502 21805 ft 416 kts 121°
2026-04-26 23:14 41.97509 16.18794 21337 ft 412 kts 121°
2026-04-26 23:14 41.96009 16.22058 20867 ft 408 kts 121°
2026-04-26 23:14 41.94525 16.25286 20379 ft 404 kts 121°
2026-04-26 23:14 41.93050 16.28481 19903 ft 401 kts 121°
2026-04-26 23:15 41.91582 16.31651 19418 ft 398 kts 121°
2026-04-26 23:15 41.90000 16.34688 18929 ft 396 kts 126°
2026-04-26 23:15 41.88317 16.37661 18425 ft 394 kts 126°
2026-04-26 23:15 41.86671 16.40567 17894 ft 387 kts 127°
2026-04-26 23:16 41.85049 16.43429 17406 ft 384 kts 126°
2026-04-26 23:16 41.83441 16.46267 16905 ft 380 kts 127°
2026-04-26 23:16 41.81849 16.49077 16431 ft 377 kts 127°
2026-04-26 23:16 41.80268 16.51867 15955 ft 375 kts 127°
2026-04-26 23:17 41.78694 16.54639 15479 ft 372 kts 127°
2026-04-26 23:17 41.77131 16.57387 15009 ft 370 kts 127°
2026-04-26 23:17 41.75574 16.60124 14531 ft 368 kts 127°
2026-04-26 23:17 41.74026 16.62843 14046 ft 367 kts 127°
2026-04-26 23:18 41.72482 16.65557 13532 ft 365 kts 127°
2026-04-26 23:18 41.70947 16.68247 13032 ft 362 kts 127°
2026-04-26 23:18 41.69423 16.70910 12553 ft 359 kts 127°
2026-04-26 23:18 41.67857 16.73484 12051 ft 356 kts 134°
2026-04-26 23:19 41.66118 16.75819 11555 ft 352 kts 135°
2026-04-26 23:19 41.64389 16.78124 11050 ft 349 kts 135°
2026-04-26 23:19 41.62678 16.80400 10591 ft 345 kts 135°
2026-04-26 23:19 41.61018 16.82607 10459 ft 325 kts 134°
2026-04-26 23:20 41.59482 16.84645 10321 ft 299 kts 135°
2026-04-26 23:20 41.58036 16.86568 9923 ft 290 kts 134°
2026-04-26 23:20 41.56628 16.88447 9777 ft 284 kts 134°
2026-04-26 23:20 41.55232 16.90311 9584 ft 284 kts 134°
2026-04-26 23:21 41.53823 16.92182 9081 ft 286 kts 136°
2026-04-26 23:21 41.52223 16.93757 8655 ft 286 kts 150°
2026-04-26 23:21 41.50395 16.94839 8193 ft 286 kts 158°
2026-04-26 23:21 41.48540 16.95720 8000 ft 281 kts 161°
2026-04-26 23:22 41.46675 16.96519 7875 ft 282 kts 162°
2026-04-26 23:22 41.44803 16.97291 7750 ft 281 kts 162°
2026-04-26 23:22 41.42932 16.98059 7625 ft 281 kts 162°
2026-04-26 23:22 41.41064 16.98832 7503 ft 281 kts 162°
2026-04-26 23:23 41.39202 16.99611 7375 ft 281 kts 162°
2026-04-26 23:23 41.37337 17.00395 7252 ft 281 kts 162°
2026-04-26 23:23 41.35463 17.01185 6830 ft 283 kts 162°
2026-04-26 23:23 41.33583 17.01980 6345 ft 285 kts 162°
2026-04-26 23:24 41.31694 17.02780 5912 ft 284 kts 162°
2026-04-26 23:24 41.29810 17.03576 5445 ft 285 kts 162°
2026-04-26 23:24 41.27938 17.04364 5130 ft 279 kts 163°
2026-04-26 23:24 41.26116 17.05132 4956 ft 269 kts 162°
2026-04-26 23:25 41.24364 17.05836 4825 ft 257 kts 169°
2026-04-26 23:25 41.22651 17.05687 4703 ft 242 kts 204°
2026-04-26 23:25 41.21330 17.04397 4296 ft 239 kts 238°
2026-04-26 23:25 41.20763 17.02389 3786 ft 226 kts 262°
2026-04-26 23:26 41.20484 17.00446 3564 ft 203 kts 261°
2026-04-26 23:26 41.20214 16.98736 3470 ft 176 kts 258°
2026-04-26 23:26 41.19824 16.97280 3242 ft 161 kts 253°
2026-04-26 23:26 41.19442 16.95935 3033 ft 148 kts 253°
2026-04-26 23:27 41.19087 16.94677 2834 ft 143 kts 254°
2026-04-26 23:27 41.18741 16.93445 2644 ft 141 kts 254°
2026-04-26 23:27 41.18400 16.92228 2460 ft 140 kts 254°
2026-04-26 23:27 41.18176 16.91427 2332 ft 140 kts 254°
2026-04-26 23:28 41.17723 16.89811 2091 ft 139 kts 253°
2026-04-26 23:28 41.17384 16.88606 1894 ft 139 kts 254°
2026-04-26 23:28 41.17047 16.87406 1704 ft 139 kts 253°
2026-04-26 23:28 41.16710 16.86207 1516 ft 138 kts 253°
2026-04-26 23:29 41.16372 16.85011 1336 ft 138 kts 253°
2026-04-26 23:29 41.16034 16.83816 1150 ft 138 kts 252°
2026-04-26 23:29 41.15697 16.82618 977 ft 139 kts 251°
2026-04-26 23:29 41.15363 16.81419 814 ft 138 kts 250°
2026-04-26 23:30 41.15025 16.80227 662 ft 137 kts 249°
2026-04-26 23:30 41.14686 16.79053 429 ft 136 kts 250°
2026-04-26 23:30 41.14366 16.77886 217 ft 133 kts 250°
2026-04-26 23:30 41.14047 16.76757 126 ft 117 kts 249°
2026-04-26 23:31 41.13877 16.76150 132 ft 18 kts 250°
2026-04-26 23:31 41.13833 16.75993 137 ft 19 kts 250°
2026-04-26 23:31 41.13787 16.75827 137 ft 18 kts 247°
2026-04-26 23:31 41.13723 16.75730 140 ft 15 kts 215°
2026-04-26 23:32 41.13640 16.75652 140 ft 12 kts 209°
2026-04-26 23:32 41.13569 16.75689 138 ft 14 kts 105°
2026-04-26 23:32 41.13599 16.75830 138 ft 18 kts 69°
2026-04-26 23:32 41.13637 16.75985 137 ft 13 kts 84°
2026-04-26 23:33 41.13637 16.75996 137 ft 3 kts 91°
2026-04-26 23:33 41.13641 16.76008 136 ft 0 kts 44°
2026-04-26 23:33 41.13647 16.76004 137 ft 3 kts 336°
2026-04-26 23:34 41.13640 16.75989 137 ft 0 kts 208°
2026-04-26 23:34 41.13631 16.76002 136 ft 4 kts 120°
2026-04-26 23:34 41.13625 16.76027 136 ft 2 kts 98°
2026-04-26 23:35 41.13640 16.76049 136 ft 1 kts 36°
2026-04-26 23:36 41.13657 16.76048 136 ft 5 kts 345°
2026-04-26 23:36 41.13635 16.75967 137 ft 18 kts 199°
2026-04-26 23:37 41.13579 16.76103 136 ft 4 kts 56°
2026-04-26 23:37 41.13579 16.76104 136 ft 0 kts 55°